| time (UTC) | temp F | wind direction | speed MPH | gust MPH | rain 1hr in | rain 24hr in | rain mn in | humidity % | barometer mb |
| 20260903195014 | 74 | 159 | 5.0 | 11.0 | 0.00 | 0.00 | 0.00 | 36 | 1014.0 |
| 20260903194514 | 74 | 217 | 5.0 | 12.0 | 0.00 | 0.00 | 0.00 | 38 | 1014.0 |
| 20260903194013 | 75 | 184 | 6.0 | 12.0 | 0.00 | 0.00 | 0.00 | 38 | 1014.0 |
| 20260903193513 | 76 | 201 | 5.0 | 11.0 | 0.00 | 0.00 | 0.00 | 38 | 1014.0 |
| 20260903193012 | 74 | 250 | 4.0 | 13.0 | 0.00 | 0.00 | 0.00 | 38 | 1014.1 |
| 20260903192511 | 74 | 207 | 8.0 | 13.0 | 0.00 | 0.00 | 0.00 | 39 | 1014.1 |
| 20260903192010 | 74 | 175 | 7.0 | 15.0 | 0.00 | 0.00 | 0.00 | 38 | 1014.1 |
| 20260903191510 | 75 | 180 | 6.0 | 10.0 | 0.00 | 0.00 | 0.00 | 38 | 1014.2 |
| 20260903191008 | 74 | 232 | 5.0 | 10.0 | 0.00 | 0.00 | 0.00 | 39 | 1014.2 |
| 20260903190509 | 74 | 216 | 5.0 | 12.0 | 0.00 | 0.00 | 0.00 | 40 | 1014.2 |
| 20260903190006 | 73 | 272 | 7.0 | 12.0 | 0.00 | 0.00 | 0.00 | 40 | 1014.4 |
| 20260903185505 | 73 | 258 | 6.0 | 11.0 | 0.00 | 0.00 | 0.00 | 40 | 1014.4 |
| 20260903185008 | 74 | 222 | 4.0 | 11.0 | 0.00 | 0.00 | 0.00 | 40 | 1014.5 |
| 20260903184503 | 74 | 229 | 4.0 | 10.0 | 0.00 | 0.00 | 0.00 | 40 | 1014.6 |
| 20260903184001 | 74 | 216 | 3.0 | 12.0 | 0.00 | 0.00 | 0.00 | 39 | 1014.6 |
| 20260903183502 | 73 | 264 | 2.0 | 12.0 | 0.00 | 0.00 | 0.00 | 40 | 1014.7 |
| 20260903183101 | 73 | 243 | 5.0 | 10.0 | 0.00 | 0.00 | 0.00 | 39 | 1014.7 |
| 20260903182603 | 73 | 279 | 2.0 | 10.0 | 0.00 | 0.00 | 0.00 | 39 | 1014.7 |
| 20260903182058 | 73 | 246 | 3.0 | 10.0 | 0.00 | 0.00 | 0.00 | 40 | 1014.8 |
| 20260903181558 | 72 | 163 | 3.0 | 8.0 | 0.00 | 0.00 | 0.00 | 41 | 1014.9 |
| 20260903181057 | 72 | 207 | 3.0 | 11.0 | 0.00 | 0.00 | 0.00 | 41 | 1014.9 |
| 20260903180556 | 71 | 214 | 7.0 | 11.0 | 0.00 | 0.00 | 0.00 | 41 | 1015.0 |
| 20260903180059 | 72 | 211 | 4.0 | 7.0 | 0.00 | 0.00 | 0.00 | 40 | 1015.0 |
| 20260903175553 | 72 | 156 | 3.0 | 8.0 | 0.00 | 0.00 | 0.00 | 39 | 1015.0 |
| 20260903175052 | 73 | 200 | 2.0 | 5.0 | 0.00 | 0.00 | 0.00 | 40 | 1015.1 |
| 20260903174553 | 73 | 200 | 1.0 | 5.0 | 0.00 | 0.00 | 0.00 | 40 | 1015.0 |
| 20260903174051 | 73 | 169 | 0.0 | 4.0 | 0.00 | 0.00 | 0.00 | 39 | 1015.1 |
| 20260903173550 | 75 | 171 | 0.0 | 4.0 | 0.00 | 0.00 | 0.00 | 38 | 1015.2 |
| 20260903173049 | 74 | 88 | 1.0 | 4.0 | 0.00 | 0.00 | 0.00 | 38 | 1015.2 |
| 20260903172547 | 74 | 71 | 0.0 | 7.0 | 0.00 | 0.00 | 0.00 | 39 | 1015.2 |
| 20260903172045 | 73 | 32 | 2.0 | 7.0 | 0.00 | 0.00 | 0.00 | 39 | 1015.2 |
| 20260903171553 | 73 | 44 | 1.0 | 6.0 | 0.00 | 0.00 | 0.00 | 40 | 1015.4 |
| 20260903171044 | 72 | 44 | 3.0 | 6.0 | 0.00 | 0.00 | 0.00 | 41 | 1015.4 |
| 20260903170543 | 72 | 56 | 2.0 | 8.0 | 0.00 | 0.00 | 0.00 | 42 | 1015.4 |
| 20260903170040 | 71 | 63 | 4.0 | 8.0 | 0.00 | 0.00 | 0.00 | 41 | 1015.4 |
| 20260903165540 | 71 | 67 | 3.0 | 9.0 | 0.00 | 0.00 | 0.00 | 42 | 1015.5 |
| 20260903165039 | 71 | 48 | 4.0 | 6.0 | 0.00 | 0.00 | 0.00 | 42 | 1015.4 |
| 20260903164543 | 70 | 74 | 3.0 | 8.0 | 0.00 | 0.00 | 0.00 | 43 | 1015.4 |
| 20260903164035 | 70 | 46 | 4.0 | 8.0 | 0.00 | 0.00 | 0.00 | 42 | 1015.4 |
| 20260903163534 | 70 | 24 | 3.0 | 6.0 | 0.00 | 0.00 | 0.00 | 43 | 1015.4 |
| 20260903163033 | 69 | 15 | 2.0 | 7.0 | 0.00 | 0.00 | 0.00 | 42 | 1015.4 |
| 20260903162531 | 69 | 51 | 3.0 | 7.0 | 0.00 | 0.00 | 0.00 | 42 | 1015.5 |
| 20260903162032 | 69 | 36 | 2.0 | 5.0 | 0.00 | 0.00 | 0.00 | 43 | 1015.5 |
| 20260903161533 | 68 | 53 | 1.0 | 5.0 | 0.00 | 0.00 | 0.00 | 44 | 1015.5 |
| 20260903161027 | 67 | 43 | 2.0 | 5.0 | 0.00 | 0.00 | 0.00 | 45 | 1015.6 |
| 20260903160526 | 67 | 65 | 2.0 | 4.0 | 0.00 | 0.00 | 0.00 | 45 | 1015.6 |
| 20260903160050 | 67 | 85 | 2.0 | 4.0 | 0.00 | 0.00 | 0.00 | 45 | 1015.6 |
| 20260903155524 | 66 | 90 | 2.0 | 6.0 | 0.00 | 0.00 | 0.00 | 46 | 1015.6 |
| 20260903155024 | 65 | 113 | 2.0 | 6.0 | 0.00 | 0.00 | 0.00 | 47 | 1015.7 |
| 20260903154520 | 65 | 123 | 2.0 | 4.0 | 0.00 | 0.00 | 0.00 | 47 | 1015.7 |
| 20260903154020 | 65 | 119 | 1.0 | 4.0 | 0.00 | 0.00 | 0.00 | 47 | 1015.7 |
| 20260903153518 | 64 | 98 | 2.0 | 4.0 | 0.00 | 0.00 | 0.00 | 48 | 1015.7 |
| 20260903153020 | 63 | 98 | 1.0 | 3.0 | 0.00 | 0.00 | 0.00 | 50 | 1015.8 |
| 20260903152518 | 63 | 98 | 1.0 | 3.0 | 0.00 | 0.00 | 0.00 | 50 | 1015.8 |
| 20260903152015 | 62 | 102 | 0.0 | 3.0 | 0.00 | 0.00 | 0.00 | 51 | 1015.7 |
| 20260903151512 | 62 | 88 | 1.0 | 4.0 | 0.00 | 0.00 | 0.00 | 52 | 1015.7 |
| 20260903151011 | 61 | 89 | 2.0 | 4.0 | 0.00 | 0.00 | 0.00 | 52 | 1015.6 |
| 20260903150509 | 61 | 71 | 1.0 | 5.0 | 0.00 | 0.00 | 0.00 | 53 | 1015.7 |
| 20260903150022 | 60 | 67 | 3.0 | 5.0 | 0.00 | 0.00 | 0.00 | 53 | 1015.6 |
| 20260903145505 | 60 | 70 | 1.0 | 5.0 | 0.00 | 0.00 | 0.00 | 54 | 1015.6 |
| 20260903145008 | 59 | 73 | 2.0 | 5.0 | 0.00 | 0.00 | 0.00 | 55 | 1015.6 |
| 20260903144505 | 58 | 83 | 3.0 | 5.0 | 0.00 | 0.00 | 0.00 | 55 | 1015.6 |
| 20260903144002 | 58 | 80 | 2.0 | 5.0 | 0.00 | 0.00 | 0.00 | 57 | 1015.6 |
| 20260903143500 | 57 | 56 | 2.0 | 5.0 | 0.00 | 0.00 | 0.00 | 57 | 1015.5 |
| 20260903143110 | 57 | 99 | 2.0 | 4.0 | 0.00 | 0.00 | 0.00 | 58 | 1015.5 |
| 20260903142602 | 56 | 98 | 2.0 | 4.0 | 0.00 | 0.00 | 0.00 | 59 | 1015.5 |
| 20260903142056 | 56 | 146 | 0.0 | 2.0 | 0.00 | 0.00 | 0.00 | 59 | 1015.5 |
| 20260903141556 | 56 | 118 | 0.0 | 2.0 | 0.00 | 0.00 | 0.00 | 58 | 1015.4 |
| 20260903141056 | 56 | 118 | 0.0 | 3.0 | 0.00 | 0.00 | 0.00 | 58 | 1015.4 |
| 20260903140554 | 56 | 118 | 1.0 | 4.0 | 0.00 | 0.00 | 0.00 | 58 | 1015.4 |
| 20260903140106 | 56 | 88 | 0.0 | 5.0 | 0.00 | 0.00 | 0.00 | 58 | 1015.4 |
| 20260903135551 | 56 | 98 | 3.0 | 6.0 | 0.00 | 0.00 | 0.00 | 59 | 1015.3 |
| 20260903135051 | 56 | 109 | 2.0 | 4.0 | 0.00 | 0.00 | 0.00 | 59 | 1015.3 |
| 20260903134555 | 56 | 79 | 1.0 | 6.0 | 0.00 | 0.00 | 0.00 | 59 | 1015.3 |
| 20260903134049 | 56 | 79 | 3.0 | 6.0 | 0.00 | 0.00 | 0.00 | 59 | 1015.3 |
| 20260903133549 | 56 | 94 | 2.0 | 6.0 | 0.00 | 0.00 | 0.00 | 58 | 1015.3 |
| 20260903133058 | 56 | 82 | 2.0 | 6.0 | 0.00 | 0.00 | 0.00 | 58 | 1015.3 |
| 20260903132550 | 56 | 87 | 2.0 | 6.0 | 0.00 | 0.00 | 0.00 | 58 | 1015.3 |
| 20260903132048 | 56 | 108 | 2.0 | 4.0 | 0.00 | 0.00 | 0.00 | 58 | 1015.3 |
| 20260903131549 | 56 | 101 | 1.0 | 5.0 | 0.00 | 0.00 | 0.00 | 58 | 1015.4 |
| 20260903131048 | 56 | 71 | 2.0 | 4.0 | 0.00 | 0.00 | 0.00 | 59 | 1015.4 |
| 20260903130549 | 56 | 86 | 3.0 | 6.0 | 0.00 | 0.00 | 0.00 | 59 | 1015.4 |
| 20260903130048 | 56 | 100 | 2.0 | 6.0 | 0.00 | 0.00 | 0.00 | 59 | 1015.4 |
| 20260903125547 | 56 | 90 | 3.0 | 6.0 | 0.00 | 0.00 | 0.00 | 59 | 1015.4 |
| 20260903125047 | 56 | 88 | 3.0 | 6.0 | 0.00 | 0.00 | 0.00 | 59 | 1015.5 |
| 20260903124553 | 56 | 68 | 2.0 | 6.0 | 0.00 | 0.00 | 0.00 | 59 | 1015.5 |
| 20260903124046 | 56 | 74 | 3.0 | 5.0 | 0.00 | 0.00 | 0.00 | 59 | 1015.5 |
| 20260903123549 | 56 | 80 | 2.0 | 5.0 | 0.00 | 0.00 | 0.00 | 59 | 1015.4 |
| 20260903123046 | 56 | 63 | 1.0 | 6.0 | 0.00 | 0.00 | 0.00 | 59 | 1015.4 |
| 20260903122546 | 56 | 84 | 2.0 | 6.0 | 0.00 | 0.00 | 0.00 | 59 | 1015.4 |
| 20260903122046 | 56 | 126 | 3.0 | 8.0 | 0.00 | 0.00 | 0.00 | 59 | 1015.4 |
| 20260903121545 | 56 | 80 | 3.0 | 8.0 | 0.00 | 0.00 | 0.00 | 59 | 1015.4 |
| 20260903121045 | 56 | 78 | 4.0 | 6.0 | 0.00 | 0.00 | 0.00 | 59 | 1015.5 |
| 20260903120544 | 56 | 55 | 3.0 | 6.0 | 0.00 | 0.00 | 0.00 | 58 | 1015.6 |
| 20260903120058 | 56 | 71 | 3.0 | 6.0 | 0.00 | 0.00 | 0.00 | 59 | 1015.5 |
| 20260903115542 | 56 | 76 | 4.0 | 6.0 | 0.00 | 0.00 | 0.00 | 59 | 1015.7 |
| 20260903115047 | 56 | 82 | 3.0 | 7.0 | 0.00 | 0.00 | 0.00 | 59 | 1015.7 |
| 20260903114542 | 56 | 96 | 4.0 | 7.0 | 0.00 | 0.00 | 0.00 | 59 | 1015.7 |
| 20260903114041 | 56 | 74 | 3.0 | 6.0 | 0.00 | 0.00 | 0.00 | 59 | 1015.7 |
| 20260903113540 | 56 | 92 | 4.0 | 7.0 | 0.00 | 0.00 | 0.00 | 59 | 1015.7 |
| 20260903113041 | 56 | 84 | 3.0 | 7.0 | 0.00 | 0.00 | 0.00 | 59 | 1015.9 |
| 20260903112541 | 56 | 89 | 4.0 | 7.0 | 0.00 | 0.00 | 0.00 | 59 | 1015.8 |
| 20260903112040 | 56 | 86 | 4.0 | 7.0 | 0.00 | 0.00 | 0.00 | 59 | 1015.9 |
| 20260903111539 | 56 | 90 | 4.0 | 7.0 | 0.00 | 0.00 | 0.00 | 59 | 1016.0 |
| 20260903111039 | 56 | 79 | 3.0 | 7.0 | 0.00 | 0.00 | 0.00 | 59 | 1016.0 |
| 20260903110538 | 56 | 105 | 3.0 | 7.0 | 0.00 | 0.00 | 0.00 | 59 | 1016.0 |
| 20260903110038 | 56 | 94 | 3.0 | 6.0 | 0.00 | 0.00 | 0.00 | 59 | 1016.1 |
| 20260903105536 | 56 | 86 | 4.0 | 6.0 | 0.00 | 0.00 | 0.00 | 59 | 1016.1 |
| 20260903105036 | 57 | 95 | 3.0 | 6.0 | 0.00 | 0.00 | 0.00 | 59 | 1016.2 |
| 20260903104545 | 57 | 102 | 3.0 | 6.0 | 0.00 | 0.00 | 0.00 | 59 | 1016.1 |
| 20260903104037 | 57 | 88 | 3.0 | 6.0 | 0.00 | 0.00 | 0.00 | 59 | 1016.1 |
| 20260903103534 | 57 | 86 | 3.0 | 5.0 | 0.00 | 0.00 | 0.00 | 59 | 1016.1 |
| 20260903103035 | 57 | 76 | 3.0 | 5.0 | 0.00 | 0.00 | 0.00 | 59 | 1016.1 |
| 20260903102535 | 57 | 79 | 4.0 | 5.0 | 0.00 | 0.00 | 0.00 | 59 | 1016.0 |
| 20260903102036 | 57 | 84 | 3.0 | 6.0 | 0.00 | 0.00 | 0.00 | 59 | 1016.0 |
| 20260903101534 | 57 | 85 | 2.0 | 6.0 | 0.00 | 0.00 | 0.00 | 59 | 1016.0 |
| 20260903101033 | 56 | 78 | 3.0 | 6.0 | 0.00 | 0.00 | 0.00 | 60 | 1016.0 |
| 20260903100533 | 56 | 68 | 4.0 | 6.0 | 0.00 | 0.00 | 0.00 | 60 | 1016.1 |
| 20260903100033 | 56 | 73 | 4.0 | 7.0 | 0.00 | 0.00 | 0.00 | 60 | 1016.0 |
| 20260903095531 | 56 | 86 | 2.0 | 6.0 | 0.00 | 0.00 | 0.00 | 60 | 1016.1 |
| 20260903095031 | 56 | 106 | 2.0 | 6.0 | 0.00 | 0.00 | 0.00 | 60 | 1016.1 |
| 20260903094536 | 56 | 100 | 2.0 | 6.0 | 0.00 | 0.00 | 0.00 | 60 | 1016.1 |
| 20260903094030 | 56 | 78 | 2.0 | 4.0 | 0.00 | 0.00 | 0.00 | 60 | 1016.2 |
| 20260903093530 | 56 | 88 | 2.0 | 4.0 | 0.00 | 0.00 | 0.00 | 60 | 1016.1 |
| 20260903093040 | 56 | 90 | 2.0 | 4.0 | 0.00 | 0.00 | 0.00 | 60 | 1016.2 |
| 20260903092529 | 56 | 84 | 2.0 | 4.0 | 0.00 | 0.00 | 0.00 | 60 | 1016.2 |
| 20260903092028 | 56 | 80 | 2.0 | 5.0 | 0.00 | 0.00 | 0.00 | 59 | 1016.3 |
| 20260903091528 | 57 | 76 | 1.0 | 5.0 | 0.00 | 0.00 | 0.00 | 60 | 1016.3 |
| 20260903091028 | 57 | 65 | 2.0 | 4.0 | 0.00 | 0.00 | 0.00 | 59 | 1016.3 |
| 20260903090527 | 57 | 74 | 3.0 | 4.0 | 0.00 | 0.00 | 0.00 | 59 | 1016.3 |
| 20260903090032 | 57 | 78 | 2.0 | 5.0 | 0.00 | 0.00 | 0.00 | 59 | 1016.3 |
| 20260903085525 | 57 | 81 | 2.0 | 5.0 | 0.00 | 0.00 | 0.00 | 59 | 1016.4 |
| 20260903085026 | 57 | 113 | 2.0 | 4.0 | 0.00 | 0.00 | 0.00 | 59 | 1016.4 |
| 20260903084525 | 57 | 92 | 1.0 | 6.0 | 0.00 | 0.00 | 0.00 | 59 | 1016.4 |
| 20260903084026 | 57 | 89 | 2.0 | 6.0 | 0.00 | 0.00 | 0.00 | 59 | 1016.4 |
| 20260903083525 | 57 | 113 | 2.0 | 4.0 | 0.00 | 0.00 | 0.00 | 59 | 1016.5 |
| 20260903083024 | 57 | 103 | 1.0 | 4.0 | 0.00 | 0.00 | 0.00 | 59 | 1016.4 |
| 20260903082523 | 57 | 110 | 1.0 | 5.0 | 0.00 | 0.00 | 0.00 | 59 | 1016.5 |
| 20260903082022 | 58 | 92 | 3.0 | 5.0 | 0.00 | 0.00 | 0.00 | 59 | 1016.5 |
| 20260903081522 | 58 | 89 | 2.0 | 4.0 | 0.00 | 0.00 | 0.00 | 58 | 1016.5 |
| 20260903081021 | 58 | 88 | 2.0 | 6.0 | 0.00 | 0.00 | 0.00 | 59 | 1016.5 |
| 20260903080521 | 58 | 103 | 3.0 | 6.0 | 0.00 | 0.00 | 0.00 | 59 | 1016.5 |
| 20260903080028 | 58 | 93 | 2.0 | 6.0 | 0.00 | 0.00 | 0.00 | 59 | 1016.5 |
| 20260903075520 | 58 | 105 | 2.0 | 6.0 | 0.00 | 0.00 | 0.00 | 59 | 1016.5 |
| 20260903075018 | 58 | 90 | 1.0 | 4.0 | 0.00 | 0.00 | 0.00 | 59 | 1016.5 |
| 20260903074518 | 59 | 82 | 2.0 | 4.0 | 0.00 | 0.00 | 0.00 | 59 | 1016.4 |
| 20260903074023 | 59 | 65 | 1.0 | 4.0 | 0.00 | 0.00 | 0.00 | 58 | 1016.4 |
| 20260903073517 | 59 | 63 | 0.0 | 4.0 | 0.00 | 0.00 | 0.00 | 58 | 1016.3 |
| 20260903073027 | 59 | 42 | 2.0 | 5.0 | 0.00 | 0.00 | 0.00 | 58 | 1016.4 |
| 20260903072515 | 59 | 63 | 3.0 | 6.0 | 0.00 | 0.00 | 0.00 | 58 | 1016.3 |
| 20260903072015 | 59 | 57 | 3.0 | 6.0 | 0.00 | 0.00 | 0.00 | 58 | 1016.3 |
| 20260903071529 | 59 | 60 | 3.0 | 6.0 | 0.00 | 0.00 | 0.00 | 59 | 1016.4 |
| 20260903071014 | 59 | 59 | 3.0 | 6.0 | 0.00 | 0.00 | 0.00 | 59 | 1016.4 |
| 20260903070532 | 59 | 82 | 3.0 | 6.0 | 0.00 | 0.00 | 0.00 | 59 | 1016.5 |
| 20260903070012 | 59 | 90 | 2.0 | 6.0 | 0.00 | 0.00 | 0.00 | 59 | 1016.6 |
| 20260903065512 | 60 | 92 | 2.0 | 4.0 | 0.00 | 0.00 | 0.00 | 60 | 1016.6 |
| 20260903065011 | 60 | 101 | 1.0 | 3.0 | 0.00 | 0.00 | 0.00 | 60 | 1016.6 |
| 20260903064512 | 60 | 101 | 2.0 | 3.0 | 0.00 | 0.00 | 0.00 | 60 | 1016.6 |
| 20260903064011 | 60 | 102 | 2.0 | 4.0 | 0.00 | 0.00 | 0.00 | 60 | 1016.6 |
| 20260903063511 | 60 | 102 | 2.0 | 4.0 | 0.00 | 0.00 | 0.00 | 60 | 1016.7 |
| 20260903063011 | 60 | 268 | 2.0 | 3.0 | 0.00 | 0.00 | 0.00 | 60 | 1016.7 |
| 20260903062511 | 60 | 269 | 1.0 | 3.0 | 0.00 | 0.00 | 0.00 | 60 | 1016.6 |
| 20260903062011 | 60 | 266 | 1.0 | 3.0 | 0.00 | 0.00 | 0.00 | 60 | 1016.7 |
| 20260903061512 | 61 | 265 | 1.0 | 3.0 | 0.00 | 0.00 | 0.00 | 60 | 1016.7 |
| 20260903061010 | 61 | 265 | 0.0 | 2.0 | 0.00 | 0.00 | 0.00 | 60 | 1016.7 |
| 20260903060511 | 61 | 265 | 0.0 | 0.0 | 0.00 | 0.00 | 0.00 | 60 | 1016.8 |
| 20260903060013 | 61 | 265 | 0.0 | 0.0 | 0.00 | 0.00 | 0.00 | 60 | 1016.8 |
| 20260903055510 | 61 | 265 | 0.0 | 0.0 | 0.00 | 0.00 | 0.00 | 60 | 1016.9 |
| 20260903055010 | 61 | 265 | 0.0 | 2.0 | 0.00 | 0.00 | 0.00 | 60 | 1016.9 |
| 20260903054511 | 61 | 265 | 0.0 | 2.0 | 0.00 | 0.00 | 0.00 | 59 | 1016.9 |
| 20260903054010 | 61 | 265 | 0.0 | 2.0 | 0.00 | 0.00 | 0.00 | 59 | 1017.0 |
| 20260903053510 | 61 | 265 | 0.0 | 2.0 | 0.00 | 0.00 | 0.00 | 58 | 1017.0 |
| 20260903053013 | 62 | 265 | 1.0 | 2.0 | 0.00 | 0.00 | 0.00 | 58 | 1017.0 |
| 20260903052511 | 62 | 265 | 0.0 | 0.0 | 0.00 | 0.00 | 0.00 | 59 | 1017.0 |
| 20260903052014 | 62 | 265 | 0.0 | 0.0 | 0.00 | 0.00 | 0.00 | 59 | 1017.0 |
| 20260903051509 | 62 | 265 | 0.0 | 0.0 | 0.00 | 0.00 | 0.00 | 59 | 1017.0 |
| 20260903051009 | 62 | 265 | 0.0 | 0.0 | 0.00 | 0.00 | 0.00 | 58 | 1017.1 |
| 20260903050509 | 62 | 265 | 0.0 | 1.0 | 0.00 | 0.00 | 0.00 | 59 | 1017.1 |
| 20260903050024 | 62 | 265 | 0.0 | 1.0 | 0.00 | 0.00 | 0.00 | 59 | 1017.1 |
| 20260903045509 | 62 | 265 | 0.0 | 1.0 | 0.00 | 0.00 | 0.00 | 59 | 1017.2 |
| 20260903045008 | 62 | 265 | 0.0 | 2.0 | 0.00 | 0.00 | 0.00 | 59 | 1017.2 |
| 20260903044508 | 62 | 265 | 0.0 | 3.0 | 0.00 | 0.00 | 0.00 | 58 | 1017.1 |
| 20260903044008 | 62 | 265 | 1.0 | 3.0 | 0.00 | 0.00 | 0.00 | 58 | 1017.1 |
| 20260903043509 | 62 | 265 | 1.0 | 3.0 | 0.00 | 0.00 | 0.00 | 58 | 1017.1 |
| 20260903043008 | 62 | 265 | 1.0 | 3.0 | 0.00 | 0.00 | 0.00 | 57 | 1017.0 |
| 20260903042508 | 62 | 265 | 1.0 | 4.0 | 0.00 | 0.00 | 0.00 | 57 | 1016.9 |
| 20260903042008 | 63 | 265 | 1.0 | 4.0 | 0.00 | 0.00 | 0.00 | 57 | 1017.0 |
| 20260903041512 | 63 | 258 | 2.0 | 3.0 | 0.00 | 0.00 | 0.00 | 56 | 1017.0 |
| 20260903041008 | 63 | 258 | 1.0 | 3.0 | 0.00 | 0.00 | 0.00 | 56 | 1017.0 |
| 20260903040507 | 63 | 258 | 1.0 | 3.0 | 0.00 | 0.00 | 0.00 | 55 | 1016.9 |
| 20260903040009 | 63 | 259 | 1.0 | 3.0 | 0.00 | 0.00 | 0.00 | 55 | 1016.9 |
| 20260903035506 | 63 | 257 | 1.0 | 3.0 | 0.00 | 0.00 | 0.00 | 55 | 1016.9 |
| 20260903035006 | 63 | 256 | 1.0 | 3.0 | 0.00 | 0.00 | 0.00 | 54 | 1016.9 |
| 20260903034510 | 63 | 255 | 1.0 | 3.0 | 0.00 | 0.00 | 0.00 | 54 | 1016.8 |
| 20260903034006 | 63 | 254 | 1.0 | 3.0 | 0.00 | 0.00 | 0.00 | 54 | 1016.8 |
| 20260903033506 | 63 | 252 | 1.0 | 3.0 | 0.00 | 0.00 | 0.00 | 53 | 1016.7 |
| 20260903033006 | 64 | 252 | 1.0 | 3.0 | 0.00 | 0.00 | 0.00 | 53 | 1016.7 |
| 20260903032506 | 64 | 250 | 1.0 | 3.0 | 0.00 | 0.00 | 0.00 | 53 | 1016.6 |
| 20260903032008 | 64 | 250 | 1.0 | 3.0 | 0.00 | 0.00 | 0.00 | 53 | 1016.6 |
| 20260903031507 | 64 | 246 | 1.0 | 3.0 | 0.00 | 0.00 | 0.00 | 52 | 1016.6 |
| 20260903031006 | 64 | 253 | 2.0 | 4.0 | 0.00 | 0.00 | 0.00 | 52 | 1016.6 |
| 20260903030508 | 64 | 255 | 1.0 | 4.0 | 0.00 | 0.00 | 0.00 | 51 | 1016.5 |
| 20260903030006 | 65 | 262 | 2.0 | 4.0 | 0.00 | 0.00 | 0.00 | 51 | 1016.4 |
| 20260903025506 | 65 | 234 | 2.0 | 7.0 | 0.00 | 0.00 | 0.00 | 50 | 1016.4 |
| 20260903025005 | 65 | 221 | 3.0 | 7.0 | 0.00 | 0.00 | 0.00 | 50 | 1016.3 |
| 20260903024505 | 65 | 258 | 2.0 | 4.0 | 0.00 | 0.00 | 0.00 | 48 | 1016.3 |
| 20260903024003 | 66 | 255 | 2.0 | 4.0 | 0.00 | 0.00 | 0.00 | 47 | 1016.4 |
| 20260903023508 | 66 | 235 | 2.0 | 4.0 | 0.00 | 0.00 | 0.00 | 46 | 1016.5 |
| 20260903023004 | 67 | 267 | 2.0 | 5.0 | 0.00 | 0.00 | 0.00 | 46 | 1016.5 |
| 20260903022504 | 67 | 261 | 2.0 | 5.0 | 0.00 | 0.00 | 0.00 | 45 | 1016.6 |
| 20260903022005 | 67 | 248 | 2.0 | 6.0 | 0.00 | 0.00 | 0.00 | 44 | 1016.5 |
| 20260903021504 | 68 | 166 | 3.0 | 6.0 | 0.00 | 0.00 | 0.00 | 44 | 1016.6 |
| 20260903021004 | 68 | 261 | 1.0 | 6.0 | 0.00 | 0.00 | 0.00 | 42 | 1016.6 |
| 20260903020503 | 68 | 255 | 2.0 | 6.0 | 0.00 | 0.00 | 0.00 | 42 | 1016.6 |
| 20260903020003 | 69 | 245 | 2.0 | 7.0 | 0.00 | 0.00 | 0.00 | 41 | 1016.7 |
| 20260903015505 | 69 | 275 | 3.0 | 7.0 | 0.00 | 0.00 | 0.00 | 40 | 1016.6 |
| 20260903015002 | 69 | 261 | 2.0 | 6.0 | 0.00 | 0.00 | 0.00 | 39 | 1016.6 |
| 20260903014502 | 70 | 247 | 3.0 | 6.0 | 0.00 | 0.00 | 0.00 | 39 | 1016.5 |
| 20260903014002 | 70 | 269 | 2.0 | 7.0 | 0.00 | 0.00 | 0.00 | 38 | 1016.6 |
| 20260903013502 | 70 | 257 | 2.0 | 4.0 | 0.00 | 0.00 | 0.00 | 38 | 1016.5 |
| 20260903013002 | 70 | 271 | 2.0 | 4.0 | 0.00 | 0.00 | 0.00 | 38 | 1016.5 |
| 20260903012501 | 70 | 242 | 2.0 | 8.0 | 0.00 | 0.00 | 0.00 | 38 | 1016.5 |
| 20260903012001 | 71 | 281 | 3.0 | 8.0 | 0.00 | 0.00 | 0.00 | 38 | 1016.5 |
| 20260903011501 | 71 | 279 | 4.0 | 9.0 | 0.00 | 0.00 | 0.00 | 37 | 1016.5 |
| 20260903011000 | 71 | 277 | 4.0 | 9.0 | 0.00 | 0.00 | 0.00 | 37 | 1016.4 |
| 20260903010502 | 72 | 275 | 5.0 | 9.0 | 0.00 | 0.00 | 0.00 | 37 | 1016.6 |
| 20260903005600 | 72 | 267 | 4.0 | 9.0 | 0.00 | 0.00 | 0.00 | 37 | 1016.9 |
| 20260903005059 | 72 | 248 | 2.0 | 7.0 | 0.00 | 0.00 | 0.00 | 37 | 1016.6 |
| 20260903004602 | 72 | 255 | 2.0 | 9.0 | 0.00 | 0.00 | 0.00 | 37 | 1016.6 |
| 20260903004059 | 72 | 263 | 3.0 | 9.0 | 0.00 | 0.00 | 0.00 | 36 | 1016.6 |
| 20260903003559 | 73 | 279 | 2.0 | 8.0 | 0.00 | 0.00 | 0.00 | 36 | 1016.6 |
| 20260903003102 | 73 | 244 | 3.0 | 11.0 | 0.00 | 0.00 | 0.00 | 36 | 1016.6 |
| 20260903002558 | 73 | 205 | 5.0 | 11.0 | 0.00 | 0.00 | 0.00 | 36 | 1016.7 |
| 20260903002058 | 73 | 270 | 3.0 | 10.0 | 0.00 | 0.00 | 0.00 | 36 | 1016.7 |
| 20260903001603 | 72 | 270 | 4.0 | 9.0 | 0.00 | 0.00 | 0.00 | 36 | 1016.7 |
| 20260903001056 | 72 | 188 | 1.0 | 7.0 | 0.00 | 0.00 | 0.00 | 36 | 1016.7 |
| 20260903000556 | 73 | 217 | 4.0 | 10.0 | 0.00 | 0.00 | 0.00 | 36 | 1016.7 |
| 20260903000056 | 72 | 244 | 4.0 | 13.0 | 0.00 | 0.00 | 0.00 | 36 | 1016.8 |
| 20260902235555 | 73 | 215 | 5.0 | 13.0 | 0.00 | 0.00 | 0.00 | 36 | 1016.8 |
| 20260902235054 | 73 | 223 | 3.0 | 10.0 | 0.00 | 0.00 | 0.00 | 36 | 1016.8 |
| 20260902234602 | 73 | 215 | 4.0 | 11.0 | 0.00 | 0.00 | 0.00 | 36 | 1017.0 |
| 20260902234054 | 73 | 171 | 5.0 | 11.0 | 0.00 | 0.00 | 0.00 | 36 | 1016.9 |
| 20260902233554 | 73 | 189 | 6.0 | 11.0 | 0.00 | 0.00 | 0.00 | 36 | 1016.9 |
| 20260902233101 | 73 | 198 | 4.0 | 10.0 | 0.00 | 0.00 | 0.00 | 36 | 1016.9 |
| 20260902232552 | 72 | 172 | 3.0 | 10.0 | 0.00 | 0.00 | 0.00 | 36 | 1017.0 |
| 20260902232057 | 74 | 200 | 4.0 | 9.0 | 0.00 | 0.00 | 0.00 | 34 | 1017.0 |
| 20260902231556 | 74 | 280 | 3.0 | 8.0 | 0.00 | 0.00 | 0.00 | 34 | 1017.0 |
| 20260902231052 | 75 | 268 | 3.0 | 8.0 | 0.00 | 0.00 | 0.00 | 34 | 1017.0 |
| 20260902230555 | 75 | 245 | 4.0 | 10.0 | 0.00 | 0.00 | 0.00 | 34 | 1016.8 |
| 20260902230052 | 75 | 186 | 6.0 | 10.0 | 0.00 | 0.00 | 0.00 | 34 | 1017.0 |
| 20260902225551 | 75 | 223 | 3.0 | 10.0 | 0.00 | 0.00 | 0.00 | 34 | 1017.0 |
| 20260902225050 | 75 | 220 | 3.0 | 12.0 | 0.00 | 0.00 | 0.00 | 33 | 1017.1 |
| 20260902224600 | 76 | 220 | 4.0 | 13.0 | 0.00 | 0.00 | 0.00 | 33 | 1017.1 |
| 20260902224049 | 75 | 246 | 3.0 | 13.0 | 0.00 | 0.00 | 0.00 | 34 | 1017.1 |
| 20260902223549 | 76 | 207 | 4.0 | 10.0 | 0.00 | 0.00 | 0.00 | 33 | 1017.1 |
| 20260902223049 | 76 | 282 | 3.0 | 10.0 | 0.00 | 0.00 | 0.00 | 34 | 1017.1 |
| 20260902222549 | 74 | 107 | 0.0 | 9.0 | 0.00 | 0.00 | 0.00 | 33 | 1017.1 |
| 20260902222048 | 75 | 169 | 5.0 | 9.0 | 0.00 | 0.00 | 0.00 | 33 | 1017.3 |
| 20260902221548 | 75 | 289 | 6.0 | 10.0 | 0.00 | 0.00 | 0.00 | 35 | 1017.2 |
| 20260902221047 | 75 | 157 | 3.0 | 11.0 | 0.00 | 0.00 | 0.00 | 33 | 1017.3 |
| 20260902220547 | 76 | 214 | 6.0 | 14.0 | 0.00 | 0.00 | 0.00 | 32 | 1017.4 |
| 20260902220053 | 75 | 221 | 6.0 | 14.0 | 0.00 | 0.00 | 0.00 | 34 | 1017.5 |
| 20260902215550 | 75 | 280 | 4.0 | 11.0 | 0.00 | 0.00 | 0.00 | 33 | 1017.5 |
| 20260902215045 | 76 | 246 | 4.0 | 13.0 | 0.00 | 0.00 | 0.00 | 33 | 1017.6 |
| 20260902214545 | 76 | 244 | 3.0 | 10.0 | 0.00 | 0.00 | 0.00 | 34 | 1017.7 |
| 20260902214045 | 75 | 193 | 3.0 | 10.0 | 0.00 | 0.00 | 0.00 | 35 | 1017.8 |
| 20260902213545 | 74 | 166 | 3.0 | 10.0 | 0.00 | 0.00 | 0.00 | 35 | 1017.8 |
| 20260902213050 | 74 | 229 | 5.0 | 13.0 | 0.00 | 0.00 | 0.00 | 35 | 1018.0 |
| 20260902212543 | 76 | 202 | 6.0 | 12.0 | 0.00 | 0.00 | 0.00 | 34 | 1017.8 |
| 20260902212046 | 75 | 290 | 3.0 | 8.0 | 0.00 | 0.00 | 0.00 | 36 | 1017.8 |
| 20260902211548 | 74 | 188 | 3.0 | 10.0 | 0.00 | 0.00 | 0.00 | 36 | 1017.8 |
| 20260902211041 | 75 | 179 | 4.0 | 16.0 | 0.00 | 0.00 | 0.00 | 36 | 1018.0 |
| 20260902210541 | 75 | 256 | 3.0 | 16.0 | 0.00 | 0.00 | 0.00 | 36 | 1018.0 |
| 20260902210046 | 75 | 210 | 2.0 | 11.0 | 0.00 | 0.00 | 0.00 | 35 | 1018.0 |
| 20260902205539 | 74 | 198 | 7.0 | 11.0 | 0.00 | 0.00 | 0.00 | 36 | 1018.1 |
| 20260902205042 | 74 | 193 | 5.0 | 13.0 | 0.00 | 0.00 | 0.00 | 36 | 1018.0 |
| 20260902204541 | 74 | 260 | 4.0 | 13.0 | 0.00 | 0.00 | 0.00 | 38 | 1018.0 |
| 20260902204038 | 73 | 198 | 6.0 | 17.0 | 0.00 | 0.00 | 0.00 | 37 | 1018.1 |
| 20260902203537 | 74 | 186 | 5.0 | 17.0 | 0.00 | 0.00 | 0.00 | 35 | 1018.1 |
| 20260902203046 | 73 | 196 | 3.0 | 12.0 | 0.00 | 0.00 | 0.00 | 36 | 1018.2 |
| 20260902202537 | 74 | 173 | 6.0 | 10.0 | 0.00 | 0.00 | 0.00 | 33 | 1018.3 |
| 20260902202036 | 74 | 217 | 4.0 | 12.0 | 0.00 | 0.00 | 0.00 | 36 | 1018.1 |
| 20260902201542 | 73 | 270 | 4.0 | 16.0 | 0.00 | 0.00 | 0.00 | 36 | 1018.2 |
| 20260902201034 | 73 | 165 | 6.0 | 16.0 | 0.00 | 0.00 | 0.00 | 37 | 1018.2 |
| 20260902200534 | 72 | 144 | 4.0 | 12.0 | 0.00 | 0.00 | 0.00 | 37 | 1018.2 |
| 20260902200033 | 72 | 224 | 5.0 | 13.0 | 0.00 | 0.00 | 0.00 | 36 | 1018.2 |
| 20260902195535 | 72 | 221 | 5.0 | 10.0 | 0.00 | 0.00 | 0.00 | 37 | 1018.2 |